Voltar ao catálogo

COSMOS 1818 COOLANT

LostLEO
NORAD 50789·DEBRIS·🇷🇺 Russia

Lançado Feb 1, 1987 de Baikonur Cosmodrome

Loading…

Próximas Passagens (próximas 24 horas)

TLE

ObsoletoSource: Space-Track

Época: Apr 19, 2024, 23:50 UTC

1 50789U 87011BE  24110.99362446  .00003014  00000-0  10600-2 0  9994
2 50789  65.0116 238.3923 0021719 276.6585 199.5124 14.36304060717372

Acompanhe COSMOS 1818 COOLANT em tempo real com AllMySat

Download on the App Store